Location: Monkton
(51.3333°N, 1.2833°E)
Time: 19:37:51
(UTC+00:00)

Daily predictions for brighter satellites

Satellite Brightness Start Highest point End
(mag) Time Altitude Azimuth Time Altitude Azimuth Time Altitude Azimuth
H-2A R/B 2.9 18:16:13 10° N 18:20:14 53° WNW 18:24:15 10° SW
SL-08 RB Rocket 4.2 18:16:12 10° SE 18:20:26 40° ENE 18:24:44 10° N
FALCON 9 DEB 2.9 18:19:05 10° WNW 18:22:18 86° S 18:25:29 10° ESE
HJ-1C 3.6 18:21:42 10° SE 18:24:53 46° ENE 18:28:04 10° N
COSMOS 2428 3.5 18:20:28 10° SSE 18:25:13 28° ESE 18:30:00 10° NE
SL-16 R/B 3.0 18:22:34 10° SW 18:28:08 56° NW 18:33:45 10° NNE
Cosmos 1470 Rocket 3.7 18:26:37 10° SSW 18:31:05 82° WNW 18:35:32 10° N
SKYMED 2 3.9 18:26:49 10° N 18:31:10 72° WNW 18:35:29 10° SSW
USA 307 3.0 18:27:28 10° WNW 18:31:46 67° NNE 18:35:52 11° E
Cosmos 2369 Rocket 4.2 18:29:29 10° N 18:31:46 12° NNE 18:34:03 10° NE
USA 306 3.0 18:28:43 10° WNW 18:33:02 69° NNE 18:37:06 11° E
SL-8 Rocket 4.2 18:28:48 10° SSE 18:34:41 47° E 18:40:34 10° NNE
CENTAUR R/B 3.8 18:31:23 10° SE 18:34:54 16° ESE 18:38:46 10° ENE
ATLAS CENTAUR R/B 1.4 18:32:12 10° SW 18:35:49 68° NW 18:39:32 10° NE
Meteor 2-12 Rocket 4.5 18:31:40 10° S 18:37:44 90° WSW 18:43:54 10° N
Cosmos 962 Rocket 4.5 18:32:12 10° S 18:38:24 70° E 18:44:43 10° NNE
Cosmos 1743 4.4 18:39:08 10° ESE 18:41:22 15° E 18:43:36 10° NE
Cosmos 1703 Rocket 3.6 18:37:49 10° N 18:42:14 89° W 18:46:35 10° S
USA 308 3.0 18:38:18 10° WNW 18:42:35 71° NNE 18:46:15 14° E
Cosmos 1666 2.7 18:39:14 10° S 18:42:52 54° E 18:46:33 10° NNE
Cosmos 1339 Rocket 4.5 18:38:00 10° N 18:44:14 71° ENE 18:50:32 10° SSE
Cosmos 2322 3.8 18:40:20 10° S 18:45:55 57° ESE 18:51:31 10° NE
Cosmos 1844 Rocket 3.9 18:40:44 10° NW 18:46:00 44° WSW 18:51:14 10° S
CSL-04 Rocket 3.7 18:41:00 10° SSE 18:46:30 75° ENE 18:51:59 10° NNW
Okean-O 3.1 18:45:14 10° S 18:49:39 67° WSW 18:54:05 10° NNW
ASTEX 1 4.2 18:46:17 10° NNE 18:50:32 29° E 18:54:47 10° SE
Cosmos 1777 Rocket 4.2 18:45:26 10° NNW 18:50:42 78° WSW 18:55:54 10° SSE
Cosmos 1933 Rocket 3.8 18:47:07 10° SSW 18:51:29 76° W 18:55:56 10° N
Cosmos 2366 rocket 4.2 18:46:49 10° SSE 18:52:55 52° E 18:59:05 10° NNE
H-2A R/B 2.8 18:48:24 10° S 18:53:47 60° W 18:59:09 10° NNW
CSL-04 Debris 4.2 18:48:39 10° SSE 18:54:07 89° ENE 18:59:40 10° NNW
SJ-6B 3.5 18:52:54 10° SE 18:56:37 35° ENE 19:00:16 10° N
Cosmos 2221 Rocket 4.1 18:53:29 10° N 18:57:39 39° ENE 19:01:50 10° SE
Ariane Rocket 3.6 18:55:38 10° SE 19:00:18 38° ENE 19:04:59 10° N
USA 186 1.7 18:59:36 22° SE 19:00:49 37° ENE 19:03:20 10° N
Cosmos 1500 4.4 18:58:55 10° SSW 19:02:30 44° WNW 19:06:07 10° N
OBJECT-B 1.7 19:02:10 21° ESE 19:03:30 29° ENE 19:06:22 10° N
NOSS 3-2 (C) 4.4 19:00:22 10° SSE 19:04:34 22° ESE 19:08:11 13° ENE
Okean 1-7 3.8 19:02:03 10° NNW 19:06:20 55° W 19:10:33 10° S
Meteor 1-11 Rocket 3.7 19:01:12 10° S 19:06:45 61° E 19:12:15 10° NNE
PSLV R/B 4.2 19:02:58 10° N 19:07:04 72° WNW 19:11:06 10° SSW
Cosmos 2360 Rocket 2.9 19:04:42 10° SW 19:10:16 57° NW 19:15:54 10° NNE
YAOGAN 1 4.1 19:06:36 10° SSW 19:10:40 40° W 19:14:46 10° NNW
SAR-Lupe-4 3.6 19:07:52 10° NNE 19:11:29 83° WNW 19:15:04 10° SSW
FALCON 9 DEB 3.7 19:08:57 10° WNW 19:12:01 44° SSW 19:13:45 21° SE
Cosmos 1943 Rocket 3.6 19:08:26 10° NNW 19:12:51 22° NE 19:15:25 17° ENE
Meteor 1-13 Rocket 4.5 19:07:39 10° NNW 19:13:37 78° W 19:19:26 10° S
SJ 16-02 1.3 19:10:48 10° NNW 19:15:14 76° ENE 19:19:18 12° SSE
Cosmos 1727 Rocket 3.9 19:09:26 10° N 19:15:37 67° ENE 19:21:48 10° SSE
Cosmos 2341 Rocket 4.2 19:10:17 10° SSW 19:16:34 76° WNW 19:22:51 10° N
Cosmos 2333 4.3 19:11:10 10° SSW 19:16:51 83° WNW 19:22:38 10° NNE
DMSP B5D2-2 4.1 19:11:48 10° NNE 19:16:57 55° E 19:22:03 10° S
Cosmos 1821 Rocket 4.5 19:11:41 10° SSE 19:17:15 36° E 19:22:47 10° NNE
Cosmos 2278 Rocket 2.2 19:11:38 10° NNW 19:17:21 74° ENE 19:22:11 15° SE
Cosmos 2237 Rocket 3.0 19:12:50 10° SSE 19:17:37 29° ESE 19:22:26 10° NE
Cosmos 1544 3.6 19:15:33 10° SSE 19:18:53 35° E 19:22:15 10° NNE
Okean 3 3.6 19:15:19 10° NNW 19:19:36 77° W 19:23:53 10° S
FALCON 9 DEB 4.1 19:16:53 10° W 19:19:50 36° SSW 19:21:22 22° SSE
SL-4 R/B 3.9 19:17:43 10° W 19:20:18 19° SW 19:22:48 10° S
MOS 1 4.4 19:15:41 10° SE 19:21:09 57° ENE 19:26:42 10° N
Cosmos 1536 2.7 19:17:16 10° S 19:21:14 70° E 19:25:12 10° NNE
SeaSat 1 2.5 19:19:14 10° NE 19:24:04 52° ESE 19:28:53 10° SSW
Abrixas rocket 4.0 19:24:42 10° WSW 19:26:11 15° SSW 19:26:46 14° S
SPOT 3 Rocket 4.3 19:24:24 25° ESE 19:26:28 35° ENE 19:31:10 10° N
Cosmos 2218 Rocket 4.0 19:20:48 10° S 19:27:12 89° E 19:33:37 10° N
MetOp-A 4.1 19:25:39 10° SSE 19:31:01 88° WSW 19:36:26 10° NNW
Cosmos 864 Rocket 4.5 19:24:57 10° S 19:31:08 89° E 19:37:26 10° N
SME Rocket 4.1 19:24:02 10° NNE 19:31:31 55° E 19:36:28 10° S
Meteor 2-20 Rocket 4.4 19:25:39 10° N 19:31:43 61° ENE 19:37:09 13° SSE
Resurs 01 Rocket 2.4 19:31:41 30° E 19:32:23 32° ENE 19:36:19 10° N
USA 234 3.9 19:33:08 25° E 19:35:24 31° SE 19:41:05 10° S
Gbstr 26 Del rocket 3.5 19:31:00 10° WNW 19:35:37 70° SSW 19:38:19 30° ESE
Cosmos 2333 Rocket 2.4 19:32:08 10° SW 19:37:49 74° WNW 19:43:35 10° NNE
Cosmos 1937 Rocket 3.8 19:33:05 10° NNW 19:38:05 46° ENE 19:39:49 34° ESE
Cosmos 2123 Rocket 4.4 19:32:47 10° N 19:38:40 41° ENE 19:41:02 30° ESE
Lacrosse 4 Rocket 1.9 19:35:00 10° SW 19:39:24 65° NW 19:43:55 10° NNE
ERBS 3.5 19:38:38 10° WNW 19:41:38 30° N 19:42:16 28° NNE
USA 238 DEB 3.7 19:37:38 10° SSW 19:43:58 53° ESE 19:50:38 10° NE
IGS 5A 4.5 19:44:26 29° NE 19:44:26 29° NE 19:47:42 10° N
USA 238 3.7 19:37:46 10° SSW 19:44:05 52° ESE 19:50:44 10° NE
Cosmos 2322 Rocket 4.3 19:39:52 10° W 19:44:31 26° NW 19:49:14 10° NNE
Cosmos 1842 3.7 19:41:40 10° N 19:45:12 41° ENE 19:45:12 41° ENE
CZ-4 R/B 4.5 19:44:03 10° WSW 19:46:16 15° W 19:48:32 10° NW
Resurs 1-3 3.5 19:45:27 37° SE 19:47:05 66° ENE 19:51:28 10° N
ERS-2 4.0 19:44:22 10° N 19:47:41 33° WNW 19:50:58 10° SW
IRS-1A Rocket 4.2 19:46:16 13° SSE 19:51:17 87° WSW 19:56:51 10° NNW
Cosmos 2219 Rocket 2.6 19:48:30 10° SW 19:54:03 64° WNW 19:59:41 10° NNE
CZ-2C R/B 3.4 19:49:36 10° N 19:54:55 54° WNW 20:00:05 10° SW
CREW DRAGON DEMO-1 DEB 4.5 19:53:49 10° WSW 19:55:13 25° SW 19:55:13 25° SW
Cosmos 1238 Rocket 3.0 19:52:47 10° SSW 19:56:41 60° W 20:00:01 10° N
USA 305 3.2 19:53:46 10° WNW 19:57:59 59° SSW 19:58:46 49° SSE
Terra 3.9 20:00:53 14° NE 20:00:53 14° NE 20:02:34 10° NNE
NOSS 5 (C) 4.4 19:56:47 10° SW 20:01:03 86° SE 20:01:05 86° ESE
Cosmos 1980 3.6 19:56:33 10° SSW 20:02:06 61° ESE 20:07:41 10° NE
ERS-1 Rocket 4.4 20:03:06 22° NE 20:03:06 22° NE 20:06:19 10° N
Cosmos 1733 Rocket 2.9 19:59:39 10° S 20:04:00 89° SE 20:08:25 10° N
COSMOS 2428 3.2 20:03:32 10° SW 20:09:09 60° NW 20:14:49 10° NNE
Meteor 2-9 Rocket 4.1 20:10:29 52° E 20:10:29 52° E 20:15:30 10° NNE
USA 307 3.3 20:07:35 10° WNW 20:11:45 52° SSW 20:12:00 51° SSW
NOSS 3-2 (A) 3.3 20:06:56 10° SW 20:12:40 84° SE 20:19:23 10° NE
USA 306 3.4 20:08:49 10° WNW 20:12:58 49° SSW 20:13:13 48° SSW
Spot 2 Rocket 4.2 20:14:35 37° NE 20:14:35 37° NE 20:18:52 10° N
ATLAS CENTAUR R/B 3.7 20:12:49 10° WNW 20:15:22 17° NNW 20:17:48 11° NNE
Cosmos 1743 3.3 20:12:50 10° SSW 20:16:40 57° WNW 20:20:32 10° N
Cosmos 2369 Rocket 3.1 20:12:42 10° NNW 20:17:42 32° NE 20:18:00 31° NE
Cosmos 1898 Rocket 3.7 20:12:30 10° NNW 20:17:43 71° WSW 20:19:30 41° S
NOSS 0 Rocket 3.8 20:16:18 10° SSW 20:22:28 87° WNW 20:28:41 10° NNE
USA 308 3.6 20:18:25 10° WNW 20:22:24 45° SW 20:22:24 45° SW
CENTAUR R/B 2.4 20:18:08 10° SSW 20:24:06 72° SE 20:31:18 10° NE
Cosmos 1674 Rocket 4.3 20:27:20 10° NNW 20:31:31 50° W 20:32:23 42° SW
Landsat 7 3.8 20:34:35 72° NNE 20:34:35 72° NNE 20:38:56 10° NNW
OBJECT-B 3.2 20:35:13 19° WSW 20:35:48 20° W 20:38:15 10° NW
Cosmos 372 Rocket 3.9 20:30:42 10° NNW 20:35:35 70° NNE 20:35:35 70° NNE
ARIANE 5 R/B 3.7 20:39:17 37° NNE 20:39:17 37° NNE 20:42:13 10° N
Ariane Rocket 4.3 20:35:45 16° SSW 20:39:17 37° W 20:44:02 10° NNW
ATLAS 5 CENTAUR R/B 3.9 20:37:10 10° WNW 20:40:23 18° NNW 20:40:39 17° N
Okean 2 4.2 20:37:45 10° NNW 20:40:56 48° NW 20:40:56 48° NW
Cosmos 1763 Rocket 3.5 20:38:45 10° SSW 20:44:05 80° WNW 20:49:26 10° NNE
Cosmos 2297 3.6 20:38:38 10° NNW 20:44:26 90° ENE 20:44:36 85° SSE
MetOp-B 4.0 20:45:40 82° SW 20:45:49 84° WSW 20:51:14 10° NNW
In-Cosmos 22 4.2 20:43:18 10° N 20:48:36 70° NE 20:48:36 70° NE
Cosmos 1975 Rocket 4.4 20:47:16 10° N 20:49:55 35° N 20:49:55 35° N
Cosmos 1125 Rocket 4.5 20:48:03 10° NNW 20:51:54 37° NNE 20:51:54 37° NNE
SJ 16-02 4.1 20:50:48 10° WNW 20:53:13 15° W 20:55:38 10° SW
USA 281 4.1 20:54:08 33° NE 20:54:22 33° NE 21:00:05 10° NNW
NOSS 3-2 (C) 3.3 20:48:43 10° SW 20:54:29 88° NW 20:55:56 57° NE
Cosmos 468 Rocket 4.4 20:50:42 10° SW 20:55:57 63° WNW 21:01:13 10° NNE
Cosmos 1943 Rocket 2.2 20:51:47 10° NNW 20:56:57 72° N 20:56:57 72° N
Cosmos 2278 Rocket 4.2 20:56:35 10° NW 21:00:51 22° WSW 21:04:05 14° SW
Cosmos 2237 Rocket 2.6 20:55:42 10° SW 21:01:20 60° NW 21:07:01 10° NNE
SeaSat 1 4.0 20:57:00 10° NNE 21:01:26 34° NW 21:05:52 10° WSW
SPOT 3 Rocket 4.5 21:05:03 41° WSW 21:05:47 43° W 21:10:47 10° NNW
Resurs 01 Rocket 3.1 21:09:14 34° W 21:09:14 34° W 21:12:55 10° NNW
SPOT 1/Viking Rocket 4.1 21:14:33 54° NW 21:14:33 54° NW 21:18:45 10° NNW
Cosmos 1934 Rocket 4.3 21:14:32 46° SW 21:16:04 60° WNW 21:22:11 10° N
Lacrosse 4 Rocket 4.2 21:15:54 10° WNW 21:18:57 18° NNW 21:22:03 10° NNE
USA 234 3.5 21:20:31 57° SW 21:20:31 57° SW 21:25:37 10° WSW
USA 238 DEB 4.3 21:28:29 10° WSW 21:35:00 53° NNW 21:41:53 10° NE
USA 238 4.3 21:28:35 10° WSW 21:35:06 53° NNW 21:42:00 10° NE
Terra 3.8 21:39:46 25° N 21:39:46 25° N 21:41:45 10° NNW
ERS-1 Rocket 4.5 21:43:05 33° NNW 21:43:05 33° NNW 21:45:54 10° NNW
Cosmos 2369 Rocket 3.6 21:56:35 10° NW 21:59:48 34° NW 21:59:48 34° NW
CENTAUR R/B 3.6 22:09:10 10° W 22:15:19 44° NNW 22:22:37 10° NE
USA 281 4.3 22:40:59 40° NW 22:40:59 40° NW 22:45:02 10° NNW
SL-16 R/B 4.5 23:11:26 19° N 23:11:26 19° N 23:13:44 10° NNE
